Weather in Nikolskoye

Russia / Yaroslavl Oblast     57°35′46″N   38°38′11″E
temp.,
°C
wind,
m/s
gust,
m/s
humid.,
%
clouds,
%
prec.,
mm/h
press.,
hPa
HPBL,
m
12 may, wed
wed1200:00+9se25840 0.0 102783
03:00+9ese22930 0.0 102813
06:00+11ese12880 0.0 102873
09:00+17e236893 0.0 1027403
12:00+21ene45575 0.0 1026966
15:00+22e57530 0.0 10241383
18:00+21e5106232 0.1 10221144
21:00+14se398424 0.9 1023326
13 may, thu
thu1300:00+13se4158696 0.0 1022708
03:00+11ese28976 0.0 1022181
06:00+12ese289245 0.0 1021324
09:00+15se3884100 0.0 1021651
12:00+20se57538 0.1 10191637
15:00+20sse3458100 0.4 10161217
18:00+13e0197100 11.6 101566
21:00+12se269853 13.2 1015193
14 may, fri
fri1400:00+11s399826 0.0 1015264
03:00+8sw2498100 0.0 101785
06:00+9s2696100 0.0 1017187
09:00+14s367772 0.0 1018572
12:00+18s465499 0.0 10171412
15:00+20s3751100 0.0 10161808
18:00+18se3779100 0.7 1015527
21:00+14se41195100 3.1 1013355
15 may, sat
sat1500:00+14ese41098100 2.3 1012312
03:00+13se399951 2.4 1011274
06:00+14sse2996100 0.0 1011255
09:00+18s3986100 0.1 1010441
12:00+22s51057100 0.0 10101453
15:00+21s4967100 0.2 10091076
18:00+15s3129273 1.3 1008580
21:00+16s413925 3.1 1008504
16 may, sun
sun1600:00+14s3119638 0.1 1008319
03:00+13ssw3119714 0.1 1008349
06:00+13ssw411956 0.0 1009492
09:00+17sw587740 0.0 1010856
12:00+19sw586495 0.0 10111402
15:00+21sw575358 0.2 10111966
18:00+19sw486012 0.1 10111358
21:00+13sw24835 0.1 101366